This is the latest recevied weather packets stored in our database for station/object W4EDL-13. If no packets are shown the sender has not sent any weather packets the latest 10 day(s).
| Time | Temp. | Humidity | Pressure | Rain* | Wind** | Luminosity | Snow |
|---|---|---|---|---|---|---|---|
| 1778103048 | 30.56° C | 44% | 1006.3 hPa | - | - | - | - |
| 1778102447 | 30.56° C | 43% | 1005.9 hPa | - | - | - | - |
| 1778101847 | 31.11° C | 41% | 1005.9 hPa | - | - | - | - |
| 1778101246 | 31.67° C | 40% | 1005.9 hPa | - | - | - | - |
| 1778100646 | 31.67° C | 43% | 1005.9 hPa | - | - | - | - |
| 1778100045 | 31.67° C | 44% | 1006.3 hPa | - | - | - | - |
| 1778099445 | 31.11° C | 42% | 1006.3 hPa | - | - | - | - |
| 1778098844 | 31.67° C | 43% | 1006.3 hPa | - | - | - | - |
| 1778098243 | 31.11° C | 42% | 1006.3 hPa | - | - | - | - |
| 1778097643 | 31.67° C | 40% | 1006.3 hPa | - | - | - | - |
| 1778097042 | 32.22° C | 40% | 1006.3 hPa | - | - | - | - |
| 1778096442 | 31.67° C | 40% | 1006.6 hPa | - | - | - | - |
| 1778095841 | 32.22° C | 39% | 1006.6 hPa | - | - | - | - |
| 1778095240 | 31.67° C | 40% | 1006.6 hPa | - | - | - | - |
| 1778094640 | 32.22° C | 40% | 1007.3 hPa | - | - | - | - |
| 1778094039 | 32.78° C | 41% | 1007.3 hPa | - | - | - | - |
| 1778093439 | 32.22° C | 41% | 1007.3 hPa | - | - | - | - |
| 1778092838 | 32.22° C | 42% | 1007.6 hPa | - | - | - | - |
| 1778092237 | 32.22° C | 44% | 1007.3 hPa | - | - | - | - |
| 1778091637 | 32.22° C | 41% | 1007.6 hPa | - | - | - | - |
| 1778091036 | 31.67° C | 43% | 1007.6 hPa | - | - | - | - |
| 1778090436 | 31.67° C | 43% | 1008 hPa | - | - | - | - |
| 1778089835 | 31.11° C | 44% | 1008 hPa | - | - | - | - |
| 1778089234 | 32.22° C | 46% | 1008 hPa | - | - | - | - |
| 1778088634 | 31.67° C | 47% | 1008 hPa | - | - | - | - |
* Rain since midnight (hover to see other rain measurements)
** Current wind speed in m/s (hover to see current wind gust speed)